Miscellaneous Local Product
Issued by NWS North Platte, NE

Home | Current Version | Previous Version | Text Only | Print | Product List | Glossary On
Versions: 1 2 3 4 5 6 7 8 9 10 11 12 13 14 15 16 17 18 19 20 21 22 23 24 25 26 27 28 29 30 31 32 33 34 35 36 37 38 39 40 41 42 43 44 45 46 47 48 49 50
554
AXUS43 KLBF 230910
MISLBF


WESTERN AND NORTH CENTRAL NEBRASKA HOURLY WEATHER ROUNDUP
NATIONAL WEATHER SERVICE NORTH PLATTE NE
300 AM CST THU NOV 23 2017

NOTE: "FAIR" INDICATES FEW OR NO CLOUDS BELOW 12,000 FEET WITH NO
SIGNIFICANT WEATHER AND/OR OBSTRUCTIONS TO VISIBILITY.

NOTE: STATIONS NOT REPORTING VARIABLES SUCH AS SKY/WEATHER OR
PRESSURE ARE PROVIDED BY RAWS AND APRS NETWORKS AND ARE NOT UNDER
NATIONAL WEATHER SERVICE QUALITY CONTROL.

...OBSERVATIONS IN AND NEAR THE EASTERN PANHANDLE OF NEBRASKA...

CITY           SKY/WX    TMP DP  RH WIND       PRES   REMARKS
PINE RIDGE     CLEAR     38  35  89 CALM      30.09S
GORDON         FAIR      42  37  79 W8        30.08S
CHADRON        CLEAR     39  36  89 SW8       30.10F WCI  33
ALLIANCE       CLEAR     33  32  96 W9        30.13F WCI  25
SIDNEY         CLOUDY    46  39  76 NW13      30.18S
CRESCENT LAKE    N/A     45  39  79 NW8         N/A
$$

...OBSERVATIONS IN NORTHERN NEBRASKA AND FAR SOUTHERN SOUTH DAKOTA...

CITY           SKY/WX    TMP DP  RH WIND       PRES   REMARKS
WINNER         FAIR      48  38  68 CALM      30.03R
VALENTINE      CLEAR     38  34  85 W6        30.05R WCI  33
THEDFORD       CLEAR     37  33  88 W3        30.09S
AINSWORTH      CLEAR     41  36  82 W3        30.05R
O`NEILL        CLEAR     41  36  83 W7        30.03S
ORD            CLEAR     34  32  92 W3        30.04R
BROKEN BOW     CLEAR     49  37  63 CALM      30.06R
VALENTINE NWR    N/A     45  37  72 W6          N/A
HALSEY           N/A     43  35  73 W5          N/A
BUTTE            N/A     47  38  72 W6          N/A
CHAMBERS         N/A     42  35  75 W7          N/A
EWING            N/A     41  34  77 CALM        N/A
$$

...OBSERVATIONS IN SOUTHWEST NEBRASKA AND FAR NORTHEAST COLORADO...

CITY           SKY/WX    TMP DP  RH WIND       PRES   REMARKS
HOLYOKE        FAIR      52  39  62 NW13      30.16R
IMPERIAL       CLOUDY    44  39  82 NW8       30.14R
OGALLALA       CLEAR     49  40  71 CALM      30.13S
NORTH PLATTE   CLEAR     33  31  92 NW7       30.11R WCI  27
MCCOOK         CLOUDY    41  36  82 W9        30.10R
LEXINGTON      CLEAR     35  32  89 W6        30.08S WCI  30
STAPLETON        N/A     41  35  79 CALM        N/A
GOTHENBURG       N/A     40  33  76 W8          N/A  WCI  34
CALLAWAY         N/A     40  33  76 CALM        N/A
$$

...OBSERVATIONS IN CENTRAL LINCOLN COUNTY AREA...

CITY           SKY/WX    TMP DP  RH WIND       PRES   REMARKS
N.P. AIRPORT   CLEAR     33  31  92 NW7       30.11R WCI  27
N.P. DOWNTOWN    N/A     39  35  87 CALM        N/A
N.P. SOUTHEAST   N/A     41  36  81 CALM        N/A
N.P. HILLCREST   N/A     39  35  84 W3          N/A
$$

...SOME OBSERVATIONS FROM AROUND THE REGION...

CITY           SKY/WX    TMP DP  RH WIND       PRES   REMARKS
DENVER         CLOUDY    45  33  63 SW12      30.25R
COPPER MTN     CLOUDY    34  32  93 MISG      30.58S
GRAND JUNCTION CLOUDY    38  31  76 E6        30.39F WCI  33
LARAMIE        CLOUDY    37  34  89 W13       30.33F WCI  29
CHEYENNE       CLOUDY    50  37  61 W15       30.26S
CASPER         CLOUDY    45  37  73 SW8       30.22F
BISMARCK       CLOUDY    26  21  81 CALM      29.94F
RAPID CITY     CLOUDY    44  36  73 W5        30.04S
PIERRE         CLOUDY    38  36  92 SW9       29.98S WCI  31
SIOUX FALLS    CLOUDY    34  28  79 NW9       29.96S WCI  27
OMAHA          CLEAR     31  21  66 S5        30.00R WCI  26
GRAND ISLAND   CLEAR     40  35  83 W9        30.04S WCI  34
SCOTTSBLUFF    CLOUDY    38  34  85 NW6       30.17S WCI  33
KANSAS CITY    CLEAR     35  21  56 SW12      30.06F WCI  27
HILL CITY      CLOUDY    44  36  73 W7        30.08F
WICHITA        CLEAR     32  23  69 S5        30.10F WCI  27
DODGE CITY     CLOUDY    45  31  58 W9        30.11S
OKLAHOMA CITY  CLOUDY    32  22  66 S6        30.16F WCI  26
DALLAS         CLOUDY    39  29  67 SW5       30.20F
AMARILLO       CLOUDY    49  30  48 NW13      30.19S
$$




USA.gov is the U.S. government's official web portal to all federal, state and local government web resources and services.